Change the Weather History Date:

Saturday, October 27, 2012

  Actual Average (KMQI) Record (KMQI)
Temperature  
Mean Temperature 66 °F -  
Max Temperature 68 °F 66 °F 83 °F (1984)
Min Temperature 63 °F 54 °F 37 °F (1980)
Growing Degree Days 16 (Base 50)    
Moisture  
Dew Point 63 °F    
Average Humidity 91    
Maximum Humidity 96    
Minimum Humidity 85    
Precipitation  
Precipitation 0.01 in - - ()
Sea Level Pressure  
Sea Level Pressure 29.70 in    
Wind  
Wind Speed 12 mph (NE)    
Max Wind Speed 20 mph    
Max Gust Speed 34 mph    
Visibility 5 miles    
Events Rain    
Averages and records for this station are not official NWS values.
T = Trace of Precipitation, MM = Missing Value Source: NWS Daily Summary

Daily Weather History Graph

Daily Weather History Graph

Search for Another Location

Airport or City:

Trip Planner

Search our weather history database for the weather conditions in past years. The results will help you decide how hot, cold, wet, or windy it might be!

Date:

Astronomy

Oct. 27, 2012 Rise Set
Actual Time 7:20 AM EDT 6:11 PM EDT
Civil Twilight 6:54 AM EDT 6:37 PM EDT
Nautical Twilight 6:24 AM EDT 7:08 PM EDT
Astronomical Twilight 5:54 AM EDT 7:37 PM EDT
Moon 4:54 PM EDT (10/27) 5:16 AM EDT (10/27)
Length of Visible Light 11h 43m
Length of Day
10h 50m
Waxing Gibbous, 96% of the Moon is Illuminated
Oct 27
Waxing Gibbous
Oct 29
Full
Nov 6
Last Quarter
Nov 13
New
Nov 20
First Quarter

Hourly Weather History & Observations

Time (EDT) Temp. Dew Point Humidity Pressure Visibility Wind Dir Wind Speed Gust Speed Precip Events Conditions
12:15 AM 68.0 °F 63.5 °F 85% 29.88 in 10.0 mi NE 8.1 mph - N/A   Clear
12:35 AM 68.0 °F 63.7 °F 86% 29.88 in 7.0 mi NE 8.1 mph - N/A   Clear
12:55 AM 67.5 °F 63.7 °F 88% 29.87 in 7.0 mi NE 6.9 mph - N/A   Clear
1:15 AM 67.3 °F 63.9 °F 89% 29.86 in 7.0 mi NE 8.1 mph 17.3 mph N/A   Clear
1:35 AM 67.1 °F 63.9 °F 89% 29.84 in 7.0 mi NE 8.1 mph 16.1 mph N/A   Clear
1:55 AM 67.1 °F 63.9 °F 89% 29.83 in 7.0 mi NE 9.2 mph 19.6 mph N/A   Clear
2:15 AM 67.1 °F 64.0 °F 90% 29.83 in 7.0 mi NE 9.2 mph 18.4 mph N/A   Clear
2:35 AM 67.1 °F 63.9 °F 89% 29.83 in 7.0 mi NE 10.4 mph 18.4 mph N/A   Clear
2:55 AM 67.1 °F 63.9 °F 89% 29.82 in 7.0 mi NE 11.5 mph 16.1 mph N/A   Clear
3:15 AM 67.1 °F 64.0 °F 90% 29.81 in 7.0 mi NE 10.4 mph 18.4 mph N/A   Clear
3:35 AM 66.7 °F 64.0 °F 91% 29.80 in 7.0 mi NE 9.2 mph 16.1 mph N/A   Clear
3:55 AM 66.7 °F 64.0 °F 91% 29.80 in 7.0 mi NE 9.2 mph 16.1 mph N/A   Clear
4:15 AM 66.7 °F 64.0 °F 91% 29.78 in 7.0 mi NE 9.2 mph 18.4 mph N/A   Clear
4:35 AM 67.1 °F 64.0 °F 90% 29.78 in 7.0 mi NE 12.7 mph 19.6 mph N/A   Clear
4:55 AM 67.1 °F 64.0 °F 90% 29.77 in 7.0 mi NE 11.5 mph 19.6 mph N/A   Clear
5:15 AM 67.1 °F 64.0 °F 90% 29.76 in 7.0 mi NE 12.7 mph 19.6 mph N/A   Clear
5:35 AM 66.9 °F 63.9 °F 90% 29.76 in 7.0 mi NE 11.5 mph 21.9 mph N/A   Clear
5:55 AM 66.7 °F 63.9 °F 90% 29.75 in 7.0 mi NE 12.7 mph 23.0 mph N/A   Clear
6:15 AM 66.9 °F 63.7 °F 89% 29.75 in 7.0 mi NE 11.5 mph 26.5 mph N/A   Mostly Cloudy
6:35 AM 67.1 °F 63.7 °F 89% 29.74 in 7.0 mi NE 15.0 mph 26.5 mph N/A   Mostly Cloudy
6:55 AM 66.9 °F 63.5 °F 89% 29.74 in 7.0 mi NE 12.7 mph 21.9 mph N/A   Scattered Clouds
7:15 AM 66.9 °F 63.5 °F 89% 29.74 in 7.0 mi NE 12.7 mph 24.2 mph N/A   Scattered Clouds
7:55 AM 66.7 °F 63.3 °F 89% 29.75 in 5.0 mi NE 12.7 mph 27.6 mph N/A   Clear
8:15 AM 66.6 °F 63.1 °F 89% 29.75 in 5.0 mi NE 13.8 mph 21.9 mph N/A   Scattered Clouds
8:35 AM 66.6 °F 63.0 °F 88% 29.75 in 5.0 mi NE 11.5 mph 23.0 mph N/A   Scattered Clouds
8:55 AM 66.9 °F 63.0 °F 87% 29.75 in 7.0 mi NE 13.8 mph 26.5 mph N/A   Scattered Clouds
9:15 AM 67.1 °F 63.1 °F 87% 29.75 in 5.0 mi NE 15.0 mph 24.2 mph N/A Rain Light Rain
9:35 AM 66.9 °F 63.1 °F 88% 29.75 in 5.0 mi NE 15.0 mph 25.3 mph N/A   Light Drizzle
9:55 AM 66.7 °F 62.8 °F 87% 29.74 in 5.0 mi ENE 12.7 mph 23.0 mph N/A   Light Drizzle
10:15 AM 66.7 °F 63.1 °F 88% 29.73 in 5.0 mi NE 12.7 mph 24.2 mph N/A Rain Rain
10:35 AM 66.6 °F 63.3 °F 89% 29.73 in 4.0 mi NE 12.7 mph 23.0 mph N/A   Light Drizzle
10:55 AM 66.6 °F 63.5 °F 90% 29.73 in 5.0 mi NE 13.8 mph 23.0 mph N/A   Light Drizzle
11:35 AM 66.7 °F 63.5 °F 89% 29.72 in 4.0 mi NE 15.0 mph 23.0 mph N/A   Light Drizzle
11:55 AM 66.7 °F 63.5 °F 89% 29.72 in 4.0 mi NE 13.8 mph 26.5 mph N/A   Light Drizzle
12:15 PM 66.9 °F 63.7 °F 89% 29.71 in 5.0 mi NE 13.8 mph 24.2 mph N/A   Light Drizzle
12:35 PM 67.1 °F 63.5 °F 88% 29.71 in 5.0 mi NE 12.7 mph 26.5 mph N/A Rain Light Rain
12:55 PM 66.7 °F 63.5 °F 89% 29.70 in 4.0 mi NE 15.0 mph 24.2 mph N/A   Drizzle
1:15 PM 66.6 °F 63.7 °F 90% 29.69 in 4.0 mi NE 13.8 mph 21.9 mph N/A   Light Drizzle
1:35 PM 66.4 °F 63.7 °F 91% 29.68 in 4.0 mi NE 12.7 mph 23.0 mph N/A Rain Rain
1:55 PM 66.2 °F 63.5 °F 91% 29.67 in 4.0 mi NE 12.7 mph 23.0 mph N/A Rain Light Rain
2:15 PM 66.0 °F 63.5 °F 92% 29.66 in 4.0 mi NE 15.0 mph 25.3 mph N/A Rain Light Rain
2:35 PM 65.8 °F 63.5 °F 92% 29.66 in 4.0 mi NE 12.7 mph 24.2 mph N/A Rain Light Rain
2:55 PM 65.8 °F 63.5 °F 92% 29.65 in 4.0 mi NE 13.8 mph 24.2 mph N/A Rain Light Rain
3:15 PM 65.8 °F 63.3 °F 92% 29.64 in 4.0 mi NNE 16.1 mph 27.6 mph N/A Rain Light Rain
3:35 PM 65.7 °F 63.3 °F 92% 29.63 in 3.0 mi NNE 15.0 mph 31.1 mph N/A Rain Rain
3:55 PM 65.5 °F 63.5 °F 93% 29.63 in 3.0 mi NNE 15.0 mph 25.3 mph N/A Rain Light Rain
4:15 PM 65.3 °F 63.3 °F 93% 29.62 in 3.0 mi NNE 13.8 mph 24.2 mph N/A Rain Light Rain
4:35 PM 65.3 °F 63.3 °F 93% 29.61 in 2.5 mi NNE 16.1 mph 28.8 mph N/A Rain Rain
4:55 PM 65.1 °F 63.3 °F 94% 29.60 in 2.5 mi NNE 13.8 mph 27.6 mph N/A Rain Rain
5:15 PM 64.9 °F 63.3 °F 94% 29.59 in 2.5 mi NNE 16.1 mph 31.1 mph N/A Rain Rain
5:35 PM 64.8 °F 63.1 °F 94% 29.60 in 2.5 mi NNE 15.0 mph 29.9 mph N/A Rain Rain
5:55 PM 64.6 °F 63.0 °F 94% 29.61 in 3.0 mi NNE 19.6 mph 27.6 mph 0.01 in Rain Rain
6:15 PM 64.4 °F 62.8 °F 94% 29.60 in 3.0 mi NNE 18.4 mph 27.6 mph N/A Rain Rain
6:35 PM 63.9 °F 62.4 °F 95% 29.60 in 4.0 mi NNE 17.3 mph 34.5 mph N/A Rain Rain
6:55 PM 63.9 °F 62.2 °F 94% 29.60 in 4.0 mi NNE 18.4 mph 28.8 mph N/A Rain Light Rain
7:15 PM 63.9 °F 62.2 °F 94% 29.60 in 5.0 mi NNE 18.4 mph 31.1 mph N/A Rain Light Rain
7:35 PM 64.2 °F 62.2 °F 93% 29.60 in 5.0 mi North 17.3 mph 32.2 mph N/A Rain Rain
7:55 PM 64.0 °F 62.1 °F 93% 29.59 in 5.0 mi NNE 18.4 mph 31.1 mph N/A Rain Light Rain
8:15 PM 64.0 °F 61.9 °F 93% 29.59 in 5.0 mi NNE 18.4 mph 28.8 mph N/A Rain Light Rain
8:35 PM 64.0 °F 62.1 °F 93% 29.58 in 5.0 mi NNE 19.6 mph 31.1 mph N/A Rain Light Rain
8:55 PM 63.9 °F 61.9 °F 93% 29.57 in 5.0 mi NNE 18.4 mph 31.1 mph N/A Rain Light Rain
9:15 PM 63.9 °F 61.9 °F 93% 29.58 in 4.0 mi NNE 17.3 mph 28.8 mph N/A Rain Rain
9:55 PM 63.9 °F 62.2 °F 94% 29.57 in 5.0 mi NNE 18.4 mph 31.1 mph N/A Rain Light Rain
10:15 PM 64.0 °F 62.6 °F 95% 29.56 in 5.0 mi NNE 19.6 mph 32.2 mph N/A Rain Light Rain
10:35 PM 64.4 °F 62.6 °F 94% 29.57 in 4.0 mi NNE 18.4 mph 28.8 mph N/A Rain Light Rain
10:55 PM 64.2 °F 62.6 °F 94% 29.57 in 4.0 mi NNE 18.4 mph 29.9 mph N/A Rain Light Rain
11:15 PM 64.0 °F 62.6 °F 95% 29.56 in 3.0 mi NNE 19.6 mph 32.2 mph N/A Rain Rain
11:35 PM 63.9 °F 62.6 °F 96% 29.55 in 3.0 mi NNE 16.1 mph 28.8 mph N/A Rain Rain